www.pogodaiklimat.ru

Погода и климат >> Архив погоды >> Россия >> Свердловская область >> Артемовский


ПОГОДА в Артемовском

  • Прогноз погоды в Артемовском
  • Монитор погоды в Артемовском

АРХИВ ПОГОДЫ в Артемовском

Время (UTC), дата Ветер
(напр.,м/с)
 
Видим.   Явления Облачность Т
(С)
Тd
(С)
f
(%)
Тe
(С)
Тes
(С)
Комфортность P
(гПа)
Po
(гПа)
Тmin
(С)
Tmax
(С)
R
(мм)
R24
(мм)
S
(см)
18 10.09 СЗ 2 10 км 10 баллов +12.4 +6.9 69 +12 +12 1026.7 1008.0
21 10.09 СЗ 2 10 км 8/5 600 м
[Sc Ci fib]
+10.1 +6.7 79 +9 +9 1026.1 1007.3
00 11.09 СЗ 2 10 км 10 баллов +10.4 +9.5 94 +9 +9 1028.1 1009.3
03 11.09 СЗ 2 20 км 9/9 600 м
[Sc]
+11.1 +8.0 81 +10 +10 1029.0 1010.2 +8.9
06 11.09 СЗ 2 50 км 8/0
[Ac lent Ci fib]
+15.8 +10.1 69 +16 +18 1030.5 1012.0
09 11.09 СЗ 2 50 км 10/10 600 м
[Cu Sc]
+16.9 +9.2 60 +17 +17 1029.2 1010.8
12 11.09 СЗ 2 50 км {ливн. осадки} 10/8 600 м
[Cb cap Ci fib]
+16.3 +10.9 70 +16 +17 1029.2 1010.8
15 11.09 штиль 0 50 км 10/8 600 м
[Sc Ac und]
+13.9 +11.3 84 +14 +14 1029.1 1010.5 +18.9 0.0
18 11.09 штиль 0 10 км 10/8 1000 м
[Sc Ci fib]
+14.0 +10.6 80 +14 +14 1029.3 1010.7
21 11.09 З 2 10 км ясно +11.9 +9.3 84 +11 +11 1027.3 1008.5
00 12.09 З 2 10 км 8/0
[Ci fib]
+11.4 +8.6 83 +10 +10 1026.7 1008.0
03 12.09 З 2 50 км слаб. ливневой дождь 10/10 600 м
[Cb cap]
+11.7 +9.7 88 +11 +11 1024.3 1005.7 +10.8 0.4
06 12.09 СЗ 6 50 км {ливн. осадки} 3/3 600 м
[Sc]
+16.0 +11.6 75 +15 +17 1025.1 1006.7
09 12.09 СЗ 6-10
{12}
50 км 8/8 600 м
[Cu med, cong]
+19.4 +10.8 57 +20 +21 1022.9 1004.7
12 12.09 СЗ 2
{10}
50 км 8/8 600 м
[Cu med, cong]
+17.6 +12.0 70 +18 +18 1022.8 1004.6
15 12.09 штиль 0 50 км 10/8 600 м
[Cu med, cong Ci fib]
+14.4 +12.4 88 +14 +14 1023.2 1004.7 +20.5 0.0
18 12.09 штиль 0 10 км туман поземный 5/0
[Ci fib]
+9.9 +8.9 93 +9 +9 1023.5 1004.7
21 12.09 штиль 0 200 м туман 3/0
[Ci fib]
+8.3 +8.1 99 +7 +7 1023.1 1004.2
00 13.09 штиль 0 200 м туман 3/0
[Ci fib]
+8.7 +8.5 99 +8 +8 1022.0 1003.1
03 13.09 З 2 20 км {туман} 10/0
[Ac lent Cs]
+12.7 +11.4 92 +12 +12 1020.7 1002.2 +7.7
06 13.09 З 2 20 км {туман} 10/0
[Cs]
+17.3 +12.2 72 +18 +18 1020.9 1002.7
09 13.09 З 2 20 км 8/4 1000 м
[Cu med, cong Ci sp]
+22.1 +12.4 54 +25 +28 комфорт 1018.1 1000.2
12 13.09 З 2
{14}
50 км {гроза, ливн. осадки} 8/3 600 м
[Cb cap Ci ing]
+21.1 +12.5 58 +23 +24 комфорт 1016.9 998.9
15 13.09 З 2 50 км 5/0
[Ci fib]
+17.3 +11.6 69 +18 +18 1016.9 998.7 +23.5 0.7
18 13.09 СЗ 2 10 км 10/0
[Ac und Ci]
+15.7 +12.1 79 +16 +16 1018.3 1000.0
21 13.09 СЗ 2 10 км 8/0
[Ci fib]
+11.6 +10.2 91 +10 +10 1016.9 998.3
00 14.09 СЗ 2 10 км 6/0
[Ci fib]
+12.8 +10.7 87 +12 +12 1017.1 998.7
03 14.09 З 2 10 км 4/0
[Ac lent Ci sp]
+13.6 +10.8 83 +13 +13 1015.5 997.1 +11.0
06 14.09 З 2 20 км 6 баллов +19.0 +11.5 62 +20 +23 1015.3 997.3
09 14.09 З 4 20 км 6/0
[Cc]
+23.3 +9.5 41 +25 +29 комфорт 1013.9 996.1
12 14.09 З 2 20 км 6 баллов +23.2 +9.6 42 +25 +26 комфорт 1013.7 996.0
15 14.09 З 2 50 км ясно +17.3 +10.8 66 +18 +18 1013.3 995.2 +24.5
18 14.09 штиль 0 10 км 3/0
[Ci fib]
+13.3 +9.9 80 +13 +13 1014.4 996.0
21 14.09 штиль 0 10 км 8/0
[Ac und]
+12.8 +9.0 78 +12 +12 1012.9 994.5
00 15.09 штиль 0 10 км ясно +9.9 +8.8 93 +9 +9 1013.3 994.7
03 15.09 штиль 0 4000 м дымка 8/0
[Cs]
+10.1 +9.7 97 +9 +10 1011.4 992.8 +8.0
06 15.09 штиль 0 50 км 2 балла +20.0 +8.6 48 +21 +27 комфорт 1011.2 993.3
09 15.09 Ю 2 50 км 5/0
[Ac lent Ci sp]
+23.2 +7.9 37 +24 +28 комфорт 1008.2 990.5
12 15.09 Ю 2 50 км 4 балла +23.4 +7.1 35 +24 +25 комфорт 1008.4 990.7
15 15.09 штиль 0 50 км 10/0
[Ac lent Cs]
+19.0 +7.9 48 +19 +19 1006.6 988.7 +24.6
18 15.09 штиль 0 10 км 10 баллов +13.2 +8.1 71 +13 +13 1009.0 990.7
21 15.09 ЮЗ 2 4000 м слаб. дождь 10/10 1000 м
[Sc]
+13.7 +9.4 75 +13 +13 1006.9 988.7
00 16.09 штиль 0 2000 м слаб. ливневой дождь 10/10 600 м
[Cb cap]
+11.6 +11.0 96 +11 +11 1005.9 987.5
03 16.09 штиль 0 20 км в посл. час ливневой дождь 10/10 600 м
[Cb cap]
+10.5 +9.5 94 +10 +10 1005.8 987.4 +10.0 3
06 16.09 З 2 20 км слаб. дождь 10 баллов +10.9 +9.7 92 +9 +9 1007.7 989.3
09 16.09 штиль 0 50 км {дождь} 10/6 600 м
[Sc As trans]
+12.7 +8.3 75 +12 +14 1005.1 986.9
12 16.09 штиль 0 50 км {дождь} 10/8 600 м
[Cu Sc As op]
+12.8 +7.5 70 +12 +13 1004.2 986.0
15 16.09 штиль 0 10 км 10/8 600 м
[Sc Ci fib]
+8.2 +7.1 93 +7 +7 1004.0 985.4 +13.5 0.0
18 16.09 штиль 0 10 км 7 баллов +6.5 +6.1 97 +5 +5 1003.9 985.3
21 16.09 Ю 2 10 км 10/10 600 м
[Sc]
+5.7 +5.5 99 +3 +3 1001.5 982.9
00 17.09 штиль 0 2000 м дождь 10/0 600 м
[As op]
+7.3 +7.1 99 +6 +6 999.3 980.8
03 17.09 Ю 2 20 км {дождь} 10/10 300 м
[Frnb Ns]
+8.3 +7.9 97 +6 +6 998.1 979.7 +4.5 3
06 17.09 ЮЗ 2 50 км в посл. час ливневой дождь 9 баллов +11.0 +8.7 86 +10 +10 999.5 981.3
09 17.09 З 2 50 км в посл. час ливневой дождь 8/8 600 м
[Cb cap]
+11.4 +9.0 85 +10 +11 999.1 980.9
12 17.09 З 2 50 км {ливн. осадки} 6/4 600 м
[Cb cap Ci fib]
+13.6 +7.3 66 +13 +14 1000.7 982.5
15 17.09 Ю 2 50 км 3/3 600 м
[Sc diur, vesp Ci sp]
+9.2 +6.9 86 +7 +7 1001.5 983.0 +14.7 2

 

Местоположение метеостанции Артемовский (Свердловская область, Россия): широта 57.37 долгота 61.92 высота над уровнем моря 154 м.

В архиве по умолчанию представлена погода в Артемовском за последнюю неделю. Архивные данные за месяц целиком и за предыдущие месяцы, начиная с января 2011 года, Вы можете получить, выбрав интересующий диапазон дат из раскрывающегося списка и нажав кнопку "Ввод!".


*Определитесь, кто Вы:
робот инопланетянин человек

Внимание! Время в таблицах - всемирное. Для получения местного времени необходимо прибавить поправку, которая равна 5 ч.

Смотрите также архив погоды в соседних городах и на ближайших метеорологических станциях:

Погода в Алапаевске (Свердловская область, Россия) (57 км)
Погода в Ирбите (Свердловская область, Россия) (69 км)
Погода в Камышлове (Свердловская область, Россия) (75 км)
Погода в Верхнем Дуброво (Свердловская область, Россия) (88 км)
Погода в Екатеринбурге (Свердловская область, Россия) (98 км)
Погода в Невьянске (Свердловская область, Россия) (101 км)
Погода в Екатеринбурге (Бот.сад) (Свердловская область, Россия) (103 км)
Погода в Каменск-Уральском (Свердловская область, Россия) (105 км)
Погода в Сысерти (Свердловская область, Россия) (118 км)
Погода в Нижнем Тагиле (Свердловская область, Россия) (124 км)

Пояснения к столбцам:

Ветер - указаны скорость ветра в м/с - средняя за 10 мин, порывы в срок и между сроками (в фигурных скобках) и направление, откуда дует ветер: С - северный, СВ - северо-восточный, В - восточный, ЮВ - юго-восточный, Ю - южный, ЮЗ - юго-западный, З - западный, СЗ - северо-западный.
Видимость - горизонтальная дальность видимости в метрах или километрах. При видимости от 1 до 10 км при отсутствии осадков обычно наблюдается дымка, при ухудшении видимости до 1 км и менее - туман. В сухую погоду видимость может ухудшаться дымом, пылью или мглою.
Явления - указаны атмосферные явления, наблюдавшиеся в срок или в последний час перед сроком; фигурными скобками обозначены явления, наблюдавшиеся между сроками (за 1-3 часа до срока); квадратными скобками обозначены град или гололедные отложения с указанием их диаметра в мм.
Облачность - указаны через наклонную черту общая и нижняя облачность в баллах и высота нижней границы облаков в метрах; квадратными скобками обозначены формы облаков: Ci - перистые, Cs - перисто-слоистые, Cc - перисто-кучевые, Ac - высококучевые, As - высокослоистые, Sc - слоисто-кучевые, Ns - слоисто-дождевые, Cu - кучевые, Cb - кучево-дождевые. Подробнее классификацию облаков см. в Атласе облаков (PDF).
T - Температура воздуха - температура, измеренная на высоте 2 м над землей.
Td - Температура точки росы - температура, при понижении до которой содержащийся в воздухе водяной пар достигнет насыщения.
f - Относительная влажность воздуха - влажноcть воздуха, измеренная на высоте 2 м над землей.
Te - Эффективная температура - температура, которую ощущает одетый по сезону человек в тени. Характеристика душности погоды. При расчете учитывается влияние влажности воздуха и скорости ветра на теплоощущения человека.
Tes - Эффективная температура на солнце - температура, которую ощущает человек, с поправкой на солнечный нагрев. Характеристика знойности погоды. Зависит от высоты солнца над горизонтом, облачности и скорости ветра. Ночью, в пасмурную погоду, а также при ветре 12 м/с и более поправка равна нулю.
P - Атмосферное давление - приведенное к уровню моря атмосферное давление.
Po - Атмосферное давление - измеренное на уровне метеостанции атмосферное давление.
Tmin - Минимальная температура - минимум температуры воздуха на высоте 2 м над землей.
Tmax - Максимальная температура - максимум температуры воздуха на высоте 2 м над землей.
R - Количество осадков - Количество выпавших осадков за период времени, мм. При наведении курсора мыши на число - период времени, за который выпало указанное количество осадков.
R24 - Количество осадков - Количество выпавших осадков за 24 часа, мм.
S - Снежный покров - Высота снежного покрова, см. При наведении курсора мыши на число - состояние снежного покрова и степень покрытия местности в баллах.